DB0WV-6 Weather Reports


time (UTC)temp
F
wind
direction
speed
knots
gust
knots
rain 1hr
in
rain 24hr
in
rain mn
in
humidity
%
barometer
mb
20260507025515 44 212 7.0 12.2 0.00 2.46 0.00 94 1009.0
20260507024535 44 214 7.8 15.6 0.00 2.46 0.00 94 1009.1
20260507023535 44 223 6.1 11.3 0.00 2.46 0.00 94 1009.1
20260507022515 44 222 7.0 13.0 0.00 2.46 0.00 94 1009.0
20260507021515 44 216 7.0 12.2 0.00 2.46 0.00 95 1009.0
20260507020515 44 216 7.0 10.4 0.00 2.46 0.00 95 1009.0
20260507015515 44 222 6.1 11.3 0.00 2.46 0.00 95 1009.0
20260507014515 44 212 7.0 14.8 0.00 2.46 0.00 94 1009.0
20260507013515 45 213 6.1 8.7 0.00 2.46 0.00 94 1008.9
20260507012515 45 207 6.1 8.7 0.00 2.46 0.00 94 1009.0
20260507011515 45 213 6.1 10.4 0.00 2.46 0.00 94 1008.9
20260507010516 45 213 7.0 11.3 0.00 2.46 0.00 95 1008.8
20260507005534 45 212 6.1 13.9 0.00 2.46 0.00 95 1008.9
20260507004513 45 215 6.1 10.4 0.00 2.46 0.00 95 1008.8
20260507003513 45 213 6.1 13.0 0.00 2.46 0.00 95 1008.7
20260507002515 45 212 6.1 11.3 0.00 2.46 0.00 95 1008.6
20260507001513 45 211 7.0 11.3 0.00 2.46 0.00 95 1008.5
20260507000513 45 206 7.0 10.4 0.00 2.46 0.00 95 1008.6
20260506235513 45 206 6.1 10.4 0.00 2.46 0.00 95 1008.6
20260506234514 45 202 7.0 12.2 0.00 2.46 0.00 95 1008.6
20260506233514 45 208 5.2 7.8 0.00 2.46 0.00 95 1008.6
20260506232514 45 221 5.2 8.7 0.00 2.46 0.00 95 1008.4
20260506231513 45 217 6.1 10.4 0.00 2.46 0.00 95 1008.5
20260506230533 45 219 5.2 7.8 0.00 2.46 0.00 95 1008.5
20260506225534 45 217 5.2 10.4 0.00 2.46 0.00 95 1008.6
20260506224513 45 209 5.2 10.4 0.00 2.46 0.00 95 1008.6
20260506223513 45 204 4.3 9.6 0.00 2.46 0.00 95 1008.6
20260506222513 45 211 5.2 7.8 0.00 2.46 0.00 95 1008.4
20260506221533 45 215 6.1 10.4 0.00 2.46 0.00 95 1008.2
20260506220513 45 214 6.1 10.4 0.00 2.46 0.00 94 1008.2
20260506215533 45 214 7.0 10.4 0.00 2.46 2.46 94 1008.1
20260506214514 45 228 5.2 11.3 0.00 2.46 2.46 94 1008.1
20260506213514 46 222 5.2 11.3 0.00 2.46 2.46 94 1008.2
20260506212514 46 216 6.1 11.3 0.00 2.46 2.46 94 1008.1
20260506211513 46 223 6.1 12.2 0.00 2.46 2.46 94 1008.2
20260506210513 46 218 7.0 11.3 0.00 2.46 2.46 94 1008.2
20260506205514 46 214 6.1 10.4 0.00 2.46 2.46 94 1008.1
20260506204514 46 213 6.1 9.6 0.01 2.46 2.46 95 1008.1
20260506203514 46 212 6.1 9.6 0.01 2.46 2.46 95 1008.0
20260506202513 46 215 5.2 10.4 0.01 2.46 2.46 94 1008.0
20260506201513 46 221 6.1 12.2 0.01 2.46 2.46 94 1008.0
20260506200514 46 226 5.2 9.6 0.01 2.46 2.46 94 1007.9
20260506195513 46 223 6.1 9.6 0.01 2.46 2.46 93 1007.8
20260506194513 46 221 6.1 10.4 0.00 2.45 2.45 93 1007.8
20260506193514 46 219 6.1 10.4 0.00 2.45 2.45 93 1007.6
20260506192534 46 225 7.0 10.4 0.00 2.45 2.45 93 1007.5
20260506191515 46 228 6.1 12.2 0.00 2.45 2.45 93 1007.4
20260506190514 46 223 6.1 11.3 0.00 2.45 2.45 92 1007.3
20260506185513 46 222 7.0 12.2 0.00 2.45 2.45 92 1007.1
20260506184513 47 225 6.1 13.9 0.00 2.45 2.45 92 1007.0
20260506183514 47 227 7.0 13.0 0.00 2.45 2.45 92 1006.8
20260506182514 47 222 7.0 11.3 0.00 2.45 2.45 92 1006.8
20260506181534 47 221 6.1 13.0 0.00 2.45 2.45 92 1006.9
20260506180514 47 217 6.1 12.2 0.00 2.45 2.45 92 1006.8
20260506175535 47 216 7.0 13.0 0.00 2.45 2.45 92 1006.7
20260506174513 47 218 6.1 13.0 0.00 2.45 2.45 91 1006.6
20260506173513 47 223 6.1 11.3 0.00 2.45 2.45 92 1006.6
20260506172513 47 210 6.1 10.4 0.00 2.45 2.45 90 1006.5
20260506171513 47 209 6.1 10.4 0.00 2.45 2.45 90 1006.2
20260506170513 47 223 7.0 11.3 0.00 2.45 2.45 90 1006.1
20260506165513 47 229 6.1 11.3 0.00 2.45 2.45 89 1006.1
20260506164513 47 218 8.7 18.2 0.00 2.45 2.45 89 1005.9
20260506163513 47 229 7.8 13.9 0.00 2.45 2.45 90 1005.9
20260506162513 47 226 8.7 15.6 0.01 2.45 2.45 92 1005.7
20260506161513 46 221 9.6 21.7 0.04 2.45 2.45 93 1005.7
20260506160513 46 222 10.4 16.5 0.15 2.45 2.45 91 1005.6
20260506155514 47 218 9.6 16.5 0.39 2.45 2.45 90 1005.6
20260506154514 47 216 9.6 15.6 0.85 2.45 2.45 87 1005.5
20260506153515 47 221 8.7 17.4 1.45 2.45 2.45 86 1005.5
20260506152534 46 230 8.7 16.5 1.79 2.43 2.43 84 1005.4
20260506151515 46 229 8.7 16.5 1.92 2.40 2.40 84 1005.4
20260506150514 46 223 9.6 19.1 2.01 2.31 2.29 84 1005.5
20260506145515 46 219 10.4 21.7 2.00 2.08 2.06 85 1005.5
20260506144534 47 217 13.0 25.2 1.59 1.67 1.59 85 1005.3
20260506143515 47 220 13.0 26.9 1.00 1.07 1.00 85 1004.9
20260506142515 48 222 13.9 22.6 0.64 0.71 0.64 83 1004.8
20260506141535 49 212 10.4 21.7 0.48 0.55 0.48 84 1004.8
20260506140514 51 221 11.3 18.2 0.28 0.35 0.28 79 1004.6
20260506135533 55 222 9.6 21.7 0.06 0.14 0.06 78 1004.6
20260506134515 57 213 6.1 10.4 0.00 0.07 0.00 71 1004.6
20260506133515 58 211 5.2 8.7 0.00 0.07 0.00 70 1004.6
20260506132515 57 215 4.3 7.0 0.00 0.07 0.00 73 1004.5
20260506131515 57 214 4.3 6.1 0.00 0.07 0.00 74 1004.5
20260506130515 58 205 4.3 7.0 0.00 0.07 0.00 73 1004.6
20260506125515 59 234 2.6 5.2 0.00 0.07 0.00 73 1004.4
20260506124514 59 225 3.5 4.3 0.00 0.07 0.00 72 1004.5
20260506123514 59 229 2.6 4.3 0.00 0.07 0.00 72 1004.3
20260506122515 59 218 3.5 5.2 0.00 0.07 0.00 71 1004.4
20260506121515 60 218 3.5 6.1 0.00 0.07 0.00 70 1004.5
20260506120535 60 219 3.5 5.2 0.00 0.07 0.00 67 1004.3
20260506115515 61 191 3.5 4.3 0.00 0.07 0.00 66 1004.3
20260506114515 60 264 0.0 1.7 0.00 0.07 0.00 68 1004.2
20260506113515 61 264 1.7 2.6 0.00 0.07 0.00 67 1004.2
20260506112535 61 183 1.7 3.5 0.00 0.07 0.00 66 1004.4
20260506111515 62 194 2.6 4.3 0.00 0.07 0.00 63 1004.5
20260506110514 63 201 1.7 3.5 0.00 0.07 0.00 62 1004.6
20260506105516 62 214 2.6 3.5 0.00 0.07 0.00 62 1004.7
20260506104515 61 90 0.0 0.0 0.00 0.07 0.00 67 1004.7
20260506103515 61 192 0.0 1.7 0.00 0.07 0.00 67 1004.8
20260506102515 60 149 0.9 2.6 0.00 0.07 0.00 70 1004.8
20260506101515 59 233 2.6 3.5 0.00 0.07 0.00 71 1004.8
20260506100515 57 90 0.0 0.0 0.00 0.07 0.00 73 1004.7
20260506095515 55 16 0.0 0.9 0.00 0.07 0.00 78 1004.5
20260506094515 54 5 1.7 4.3 0.00 0.07 0.00 81 1004.3
20260506093515 54 344 4.3 6.1 0.00 0.07 0.00 80 1004.3
20260506092515 55 2 2.6 5.2 0.00 0.07 0.00 77 1004.5
20260506091535 55 27 3.5 4.3 0.00 0.07 0.00 75 1004.7
20260506090534 56 31 3.5 5.2 0.00 0.07 0.00 75 1004.8
20260506085516 56 45 3.5 4.3 0.00 0.07 0.00 74 1004.7
20260506084515 57 6 0.9 3.5 0.00 0.07 0.00 73 1004.8
20260506083535 57 25 1.7 2.6 0.00 0.07 0.00 72 1004.8
20260506082516 57 282 0.0 2.6 0.00 0.07 0.00 71 1004.7
20260506081516 56 350 0.9 2.6 0.00 0.07 0.00 72 1004.6
20260506080515 56 311 1.7 2.6 0.00 0.07 0.00 71 1004.6
20260506073516 57 329 0.0 0.9 0.00 0.07 0.00 70 1004.8
20260506072514 57 241 0.9 2.6 0.00 0.07 0.00 70 1005.0
20260506071515 56 222 0.9 2.6 0.00 0.07 0.00 72 1004.9
20260506070516 56 237 0.9 2.6 0.00 0.07 0.00 74 1004.8
20260506062515 53 204 1.7 3.5 0.00 0.07 0.00 78 1005.0
20260506061515 53 232 2.6 3.5 0.00 0.07 0.00 78 1004.9
20260506060516 53 239 1.7 4.3 0.00 0.07 0.00 79 1004.9
20260506050515 50 241 1.7 4.3 0.00 0.07 0.00 84 1004.9
20260506044515 50 227 2.6 6.1 0.00 0.07 0.00 85 1004.9
20260506043535 49 229 3.5 5.2 0.00 0.07 0.00 86 1004.9
20260506042515 49 220 4.3 6.1 0.00 0.07 0.00 86 1005.1
20260506041515 49 222 3.5 6.1 0.00 0.07 0.00 87 1005.1
20260506040515 49 227 3.5 5.2 0.00 0.07 0.00 87 1005.2
20260506035516 49 226 3.5 5.2 0.00 0.07 0.00 88 1005.3
20260506034515 49 223 3.5 6.1 0.00 0.07 0.00 88 1005.4
20260506033515 49 222 3.5 5.2 0.00 0.07 0.00 89 1005.5
20260506032516 49 210 1.7 3.5 0.00 0.07 0.00 88 1005.7
20260506031535 49 220 1.7 4.3 0.00 0.07 0.00 88 1005.7
20260506030516 49 196 3.5 6.1 0.00 0.07 0.00 89 1005.9